EST,Max TemperatureF,Mean TemperatureF,Min TemperatureF,Max Dew PointF,MeanDew PointF,Min DewpointF,Max Humidity, Mean Humidity, Min Humidity, Max Sea Level PressureIn, Mean Sea Level PressureIn, Min Sea Level PressureIn, Max VisibilityMiles, Mean VisibilityMiles, Min VisibilityMiles, Max Wind SpeedMPH, Mean Wind SpeedMPH, Max Gust SpeedMPH,PrecipitationIn, CloudCover, Events, WindDirDegrees
2014-2-1,49,36,23,22,19,16,75,52,28,30.27,30.16,29.98,10,8,4,16,3,22,0.00,1,,103
2014-2-2,56,42,28,39,30,21,78,60,41,30.11,30.01,29.92,10,8,4,17,4,22,0.02,6,Rain,357
2014-2-3,40,36,32,34,31,22,89,79,69,30.35,30.13,30.06,10,5,0,15,8,19,0.79,8,Fog-Rain-Snow,1
2014-2-4,32,27,22,26,21,18,81,70,59,30.48,30.33,30.16,10,7,1,9,4,12,0.04,5,Rain,35
2014-2-5,44,37,29,33,28,16,92,72,51,30.14,29.93,29.70,10,5,2,27,10,43,1.03,8,Rain,90
2014-2-6,35,30,25,16,15,13,68,53,38,30.37,30.30,30.23,10,10,10,20,7,26,0.00,2,,312
2014-2-7,38,31,23,18,14,8,68,54,40,30.35,30.32,30.27,10,10,10,17,7,21,0.00,2,,267
2014-2-8,31,26,20,18,13,8,74,58,42,30.34,30.28,30.20,10,9,4,9,2,11,T,4,Snow,19
2014-2-9,34,28,21,28,22,15,92,74,56,30.20,30.06,29.96,10,4,0,22,4,31,0.03,8,Fog-Snow,77
2014-2-10,32,26,20,15,9,5,58,49,39,30.35,30.23,30.09,10,10,10,21,8,27,0.00,3,,333
2014-2-11,30,20,9,7,5,4,80,56,32,30.49,30.42,30.34,10,9,5,13,3,16,0.00,0,,10
2014-2-12,25,17,8,17,10,1,84,65,46,30.54,30.37,30.19,10,6,1,12,4,15,0.06,2,Snow,45
2014-2-13,38,29,20,29,23,15,88,74,59,30.17,29.69,29.39,10,3,0,26,15,33,0.19,8,Fog-Snow,348
2014-2-14,47,40,33,26,20,13,64,49,34,29.72,29.61,29.46,10,10,8,30,11,40,0.00,3,,287
2014-2-15,39,33,26,30,24,8,89,66,42,29.97,29.74,29.63,10,6,1,30,14,38,0.05,6,Snow,336
2014-2-16,33,28,22,22,15,6,81,58,35,30.23,30.06,30.00,10,7,2,23,5,28,T,6,Snow,314
2014-2-17,31,23,14,22,10,2,62,47,31,30.47,30.31,30.16,10,8,0,16,6,22,T,3,Fog-Snow,108
2014-2-18,53,36,19,25,21,15,84,55,26,30.15,30.06,29.99,10,8,2,32,9,39,0.01,4,Snow,185
2014-2-19,57,43,28,38,29,20,89,60,30,30.15,29.88,29.71,10,7,1,37,8,44,0.15,3,Rain,321
2014-2-20,50,39,27,28,24,22,85,59,32,30.23,30.11,29.90,10,10,7,18,5,26,0.00,2,,158
2014-2-21,55,46,37,44,32,21,89,61,32,29.99,29.79,29.68,10,8,1,24,6,31,0.31,4,Rain,281
2014-2-22,60,46,31,23,19,14,64,43,21,30.09,30.03,29.99,10,10,10,28,9,34,0.00,0,,225
2014-2-23,57,43,29,36,28,21,79,56,32,30.03,29.97,29.90,10,10,10,18,4,24,0.03,3,Rain,357
2014-2-24,41,35,29,29,12,7,64,46,27,30.14,30.05,29.96,10,10,10,31,15,40,0.00,0,,278
2014-2-25,38,31,23,17,12,7,55,45,35,30.13,30.07,30.01,10,10,10,22,8,29,T,5,,272
2014-2-26,33,25,17,19,10,2,63,45,26,30.01,29.93,29.87,10,9,1,23,9,30,T,4,Snow,297
2014-2-27,35,23,11,9,4,-3,76,51,25,30.19,29.85,29.71,10,10,9,35,13,45,0.00,1,,282
2014-2-28,28,18,8,2,-6,-9,51,36,21,30.44,30.35,30.22,10,10,10,13,4,16,0.00,0,,352